EW3204 Weather Reports


Display with metric or nautical units.
time (UTC)temp
F
wind
direction
speed
MPH
gust
MPH
rain 1hr
in
rain 24hr
in
rain mn
in
humidity
%
barometer
mb
20220808133036 81 94 2.0 0.0 0.00 0.00 0.00 65 1009.7
20220808131534 81 127 2.0 0.0 0.00 0.00 0.00 66 1009.4
20220808130031 81 121 3.0 0.0 0.00 0.00 0.00 65 1009.4
20220808124531 82 146 2.0 0.0 0.00 0.00 0.00 62 1009.3
20220808123025 82 96 2.0 0.0 0.00 0.00 0.00 62 1009.1
20220808121525 83 140 1.0 0.0 0.00 0.00 0.00 55 1008.9
20220808120026 84 98 1.0 0.0 0.00 0.00 0.00 49 1008.7
20220808114517 84 301 1.0 0.0 0.00 0.00 0.00 41 1008.7
20220808113015 85 301 1.0 0.0 0.00 0.00 0.00 41 1008.4
20220808111520 85 289 3.0 0.0 0.00 0.00 0.00 41 1008.4
20220808110017 85 316 2.0 0.0 0.00 0.00 0.00 42 1008.3
20220808104511 85 265 2.0 0.0 0.00 0.00 0.00 40 1008.3
20220808103009 87 234 3.0 0.0 0.00 0.00 0.00 45 1008.1
20220808101510 86 281 3.0 0.0 0.00 0.00 0.00 46 1008.1
20220808100007 86 305 3.0 0.0 0.00 0.00 0.00 48 1008.1
20220808094508 85 307 3.0 0.0 0.00 0.00 0.00 46 1008.2
20220808093011 86 290 3.0 0.0 0.00 0.00 0.00 47 1008.3
20220808091503 86 279 3.0 0.0 0.00 0.00 0.00 45 1008.3
20220808090059 87 138 0.0 0.0 0.00 0.00 0.00 45 1008.4
20220808084603 88 138 1.0 0.0 0.00 0.00 0.00 44 1008.5
20220808083059 88 138 1.0 0.0 0.00 0.00 0.00 44 1008.6
20220808081558 87 138 1.0 0.0 0.00 0.00 0.00 45 1008.5
20220808080057 88 340 1.0 0.0 0.00 0.00 0.00 44 1008.4
20220808074600 88 359 1.0 0.0 0.00 0.00 0.00 43 1008.4
20220808073051 89 359 2.0 0.0 0.00 0.00 0.00 43 1008.6
20220808071550 89 340 1.0 0.0 0.00 0.00 0.00 42 1008.6
20220808070047 89 279 2.0 0.0 0.00 0.00 0.00 42 1008.8
20220808064546 89 11 1.0 0.0 0.00 0.00 0.00 42 1008.8
20220808063046 90 350 2.0 0.0 0.00 0.00 0.00 43 1008.7
20220808061559 90 2 2.0 0.0 0.00 0.00 0.00 42 1008.6
20220808060045 91 19 1.0 0.0 0.00 0.00 0.00 39 1008.6
20220808054545 92 116 0.0 0.0 0.00 0.00 0.00 36 1008.5
20220808053044 92 116 1.0 0.0 0.00 0.00 0.00 39 1008.5
20220808051544 93 152 2.0 0.0 0.00 0.00 0.00 38 1008.3
20220808050044 93 125 2.0 0.0 0.00 0.00 0.00 38 1008.2
20220808044543 94 117 4.0 0.0 0.00 0.00 0.00 38 1007.8
20220808043046 94 113 4.0 0.0 0.00 0.00 0.00 37 1007.7
20220808041542 95 87 7.0 0.0 0.00 0.00 0.00 36 1007.5
20220808040042 95 79 6.0 0.0 0.00 0.00 0.00 37 1007.2
20220808034545 96 88 7.0 0.0 0.00 0.00 0.00 36 1007.0
20220808033041 97 78 3.0 0.0 0.00 0.00 0.00 28 1006.8
20220808031541 98 96 3.0 0.0 0.00 0.00 0.00 28 1006.8
20220808030040 98 103 5.0 0.0 0.00 0.00 0.00 28 1006.6
20220808024540 98 88 2.0 0.0 0.00 0.00 0.00 30 1006.4
20220808023042 99 9 2.0 0.0 0.00 0.00 0.00 31 1006.1
20220808021539 99 34 2.0 0.0 0.00 0.00 0.00 31 1006.0
20220808020038 99 50 1.0 0.0 0.00 0.00 0.00 31 1006.0
20220808014546 99 152 1.0 0.0 0.00 0.00 0.00 32 1006.0
20220808013038 99 143 3.0 0.0 0.00 0.00 0.00 32 1005.9
20220808011545 100 78 3.0 0.0 0.00 0.00 0.00 32 1005.9
20220808010042 100 167 4.0 0.0 0.00 0.00 0.00 32 1006.0
20220808004538 99 148 4.0 0.0 0.00 0.00 0.00 32 1006.1
20220808003041 99 113 5.0 0.0 0.00 0.00 0.00 32 1006.1
20220808001535 99 109 6.0 0.0 0.00 0.00 0.00 33 1006.3
20220808000039 99 71 5.0 0.0 0.00 0.00 0.00 32 1006.3
20220807234536 100 52 3.0 0.0 0.00 0.00 0.00 33 1006.4
20220807233047 100 120 3.0 0.0 0.00 0.00 0.00 31 1006.5
20220807231538 99 157 4.0 0.0 0.00 0.00 0.00 30 1006.7
20220807230035 99 183 4.0 0.0 0.00 0.00 0.00 31 1006.8
20220807224529 98 121 5.0 0.0 0.00 0.00 0.00 33 1007.0
20220807223032 98 136 5.0 0.0 0.00 0.00 0.00 34 1007.2
20220807221526 97 343 4.0 0.0 0.00 0.00 0.00 35 1007.4
20220807220025 97 55 5.0 0.0 0.00 0.00 0.00 36 1007.7
20220807214525 97 157 5.0 0.0 0.00 0.00 0.00 36 1007.9
20220807213026 97 123 3.0 0.0 0.00 0.00 0.00 36 1008.2
20220807211521 96 129 3.0 0.0 0.00 0.00 0.00 35 1008.4
20220807210020 95 56 3.0 0.0 0.00 0.00 0.00 37 1008.6
20220807204525 95 65 5.0 0.0 0.00 0.00 0.00 39 1008.6
20220807203016 95 48 7.0 0.0 0.00 0.00 0.00 41 1008.7
20220807201517 94 78 4.0 0.0 0.00 0.00 0.00 42 1008.9
20220807200021 93 167 6.0 0.0 0.00 0.00 0.00 42 1009.1
20220807194515 93 144 6.0 0.0 0.00 0.00 0.00 43 1009.0
20220807193014 94 186 6.0 0.0 0.00 0.00 0.00 43 1009.2
20220807191513 94 101 8.0 0.0 0.00 0.00 0.00 43 1009.4
20220807190012 94 148 9.0 0.0 0.00 0.00 0.00 44 1009.4
20220807184511 94 112 8.0 0.0 0.00 0.00 0.00 44 1009.5
20220807183010 94 69 9.0 0.0 0.00 0.00 0.00 43 1009.6
20220807181508 93 71 6.0 0.0 0.00 0.00 0.00 41 1009.6
20220807180007 93 25 4.0 0.0 0.00 0.00 0.00 42 1009.2
20220807174507 92 76 4.0 0.0 0.00 0.00 0.00 45 1009.1
20220807173007 92 56 3.0 0.0 0.00 0.00 0.00 43 1009.3
20220807171506 91 71 5.0 0.0 0.00 0.00 0.00 46 1009.5
20220807170006 90 317 7.0 0.0 0.00 0.00 0.00 48 1009.5
20220807164505 89 50 7.0 0.0 0.00 0.00 0.00 51 1009.3
20220807163003 88 69 5.0 0.0 0.00 0.00 0.00 51 1009.3
20220807161503 89 84 5.0 0.0 0.00 0.00 0.00 49 1009.4
20220807160002 89 40 4.0 0.0 0.00 0.00 0.00 47 1009.3
20220807154501 89 34 5.0 0.0 0.00 0.00 0.00 47 1009.3
20220807153001 89 69 6.0 0.0 0.00 0.00 0.00 47 1009.3
20220807151600 90 80 2.0 0.0 0.00 0.00 0.00 35 1009.1
20220807150059 88 273 1.0 0.0 0.00 0.00 0.00 36 1008.9
20220807144554 87 265 2.0 0.0 0.00 0.00 0.00 39 1008.7
20220807143101 86 285 4.0 0.0 0.00 0.00 0.00 42 1008.6
20220807141557 85 348 4.0 0.0 0.00 0.00 0.00 42 1008.4
20220807140058 85 258 3.0 0.0 0.00 0.00 0.00 52 1008.3
20220807134552 85 291 1.0 0.0 0.00 0.00 0.00 53 1008.6